Find Starlink 3131

NORAD ID: 49427 Int'l Des: 2021-104 Owner: SPXS Country: US Constellation: starlink operational
LEOCIRCULAR

Current View

Loading 3D Globe...

About Starlink 3131

Starlink 3131 (NORAD 49427) is a starlink constellation satellite (v1.5) launched Nov 13, 2021 by SPXS of US. It operates in LEO, CIRCULAR orbit with a mass of 290.00 kg.

Upcoming Passes

Passes for default location (London). Set your location on the main map for personalized predictions.

Altitude History

Loading altitude history...

Two-Line Element Set

1 49427U 21104V 26230.22615690 .00000400 00000-0 24666-4 0 9990
2 49427 53.1594 215.7340 0001569 37.9193 322.1919 15.31699636263131
Epoch: Aug 18, 2026 • Age: 12 hours

Current Status

Altitude 477.3 km
Apogee / Perigee N/A
Velocity 7.63 km/s
Sub-Earth Point -19.93°S, 177.19°W
Launch Date Nov 13, 2021
Age 4.7 years
Type internet

Technical Details

Classification Payload
Mass 290.00 kg
Dry Mass 270.00 kg
Total Mass 290.00 kg
Length 0.20 m
Diameter 2.80 m
Span 9.00 m
Shape Box + pan
Manufacturer SPXS
Bus Type Starlink
Phase Status In Orbit
Owner/State SPXS/US

Most Searched